Weather History for KGRF - April, 2013

Change the Weather History Date:

Friday, April 12, 2013

  Actual Average Record
Temperature  
Mean Temperature 41 °F -  
Max Temperature 47 °F 56 °F 79 °F (2008)
Min Temperature 35 °F 37 °F 28 °F (1997)
Degree Days  
Heating Degree Days 24    
Moisture  
Dew Point 41 °F    
Average Humidity 89    
Maximum Humidity 100    
Minimum Humidity 67    
Precipitation  
Precipitation 0.21 in - - ()
Sea Level Pressure  
Sea Level Pressure 29.86 in    
Wind  
Wind Speed 8 mph (South)    
Max Wind Speed 24 mph    
Max Gust Speed 33 mph    
Visibility 10 miles    
Events Rain    
Averages and records for this station are not official NWS values.
T = Trace of Precipitation, MM = Missing Value Source: NWS Daily Summary

Daily Weather History Graph

Daily Weather History Graph

Search for Another Location

Airport or City:

Trip Planner

Search our weather history database for the weather conditions in past years. The results will help you decide how hot, cold, wet, or windy it might be!

Date:

Astronomy

Apr. 12, 2013 Rise Set
Actual Time 6:27 AM PDT 7:55 PM PDT
Civil Twilight 5:55 AM PDT 8:27 PM PDT
Nautical Twilight 5:17 AM PDT 9:05 PM PDT
Astronomical Twilight 4:35 AM PDT 9:47 PM PDT
Moon 7:32 AM PDT (4/12) 10:41 PM PDT (4/12)
Length of Visible Light 14h 31m
Length of Day
13h 28m
Waxing Crescent, 6% of the Moon is Illuminated
Apr 12
Waxing Crescent
Apr 18
First Quarter
Apr 25
Full
May 2
Last Quarter
May 9
New

Hourly Weather History & Observations

Time (PDT) Temp. Windchill Dew Point Humidity Pressure Visibility Wind Dir Wind Speed Gust Speed Precip Events Conditions
12:58 AM 36.1 °F 33.5 °F 33.6 °F 91% 30.20 in 10.0 mi South 3.5 mph - N/A   Clear
1:58 AM 35.8 °F 30.9 °F 33.8 °F 92% 30.19 in 10.0 mi SE 5.8 mph - N/A   Clear
2:58 AM 37.2 °F 33.6 °F 34.9 °F 91% 30.17 in 10.0 mi SE 4.6 mph - N/A   Overcast
3:58 AM 36.7 °F - 34.9 °F 93% 30.16 in 10.0 mi SE 2.3 mph - N/A   Overcast
4:58 AM 37.2 °F 34.7 °F 34.9 °F 91% 30.14 in 10.0 mi SSE 3.5 mph - N/A   Overcast
5:58 AM 36.9 °F - 34.9 °F 93% 30.10 in 10.0 mi ESE 2.3 mph - N/A   Overcast
6:58 AM 37.6 °F - 35.2 °F 91% 30.08 in 10.0 mi ESE 2.3 mph - N/A   Mostly Cloudy
7:58 AM 39.2 °F 37.0 °F 35.4 °F 86% 30.07 in 10.0 mi SE 3.5 mph - N/A   Mostly Cloudy
8:58 AM 41.9 °F 38.2 °F 34.9 °F 76% 30.06 in 10.0 mi South 5.8 mph - N/A   Mostly Cloudy
9:58 AM 43.3 °F 40.7 °F 35.2 °F 73% 30.03 in 10.0 mi Variable 4.6 mph - N/A   Scattered Clouds
10:58 AM 45.0 °F 41.8 °F 36.1 °F 71% 30.01 in 10.0 mi Variable 5.8 mph - N/A   Mostly Cloudy
11:58 AM 46.2 °F 43.3 °F 36.3 °F 68% 30.00 in 10.0 mi Variable 5.8 mph - N/A   Scattered Clouds
12:58 PM 47.3 °F - 36.9 °F 67% 29.97 in 10.0 mi SSW 6.9 mph - N/A   Clear
1:36 PM 46.4 °F 42.9 °F 39.2 °F 76% 29.95 in 10.0 mi SW 6.9 mph - N/A   Light Drizzle
1:41 PM 46.4 °F 41.9 °F 39.2 °F 76% 29.95 in 10.0 mi SW 9.2 mph - N/A   Light Drizzle
1:56 PM 44.6 °F 42.2 °F 39.2 °F 81% 29.94 in 6.0 mi SSW 4.6 mph - N/A   Light Drizzle
1:58 PM 45.1 °F 41.4 °F 39.7 °F 81% 29.96 in 6.0 mi SW 6.9 mph - 0.01 in   Light Drizzle
2:13 PM 44.6 °F 40.7 °F 41.0 °F 87% 29.94 in 8.0 mi South 6.9 mph - N/A Rain Light Rain
2:58 PM 44.1 °F 40.1 °F 41.4 °F 90% 29.93 in 9.0 mi South 6.9 mph - 0.05 in Rain Light Rain
3:23 PM 44.6 °F 40.7 °F 42.8 °F 93% 29.90 in 7.0 mi SSE 6.9 mph - N/A Rain Light Rain
3:58 PM 43.9 °F 38.8 °F 41.2 °F 90% 29.90 in 10.0 mi South 9.2 mph - 0.06 in Rain Light Rain
4:53 PM 44.6 °F 40.2 °F 42.8 °F 93% 29.83 in 10.0 mi SSE 8.1 mph - N/A   Light Drizzle
4:58 PM 44.2 °F 38.8 °F 43.0 °F 95% 29.85 in 10.0 mi SSE 10.4 mph - 0.04 in   Light Drizzle
5:03 PM 44.6 °F 39.7 °F 42.8 °F 93% 29.82 in 10.0 mi SSE 9.2 mph - N/A   Light Drizzle
5:13 PM 44.6 °F 39.2 °F 42.8 °F 93% 29.82 in 10.0 mi SSE 10.4 mph - N/A   Overcast
5:18 PM 44.6 °F 38.8 °F 42.8 °F 93% 29.82 in 10.0 mi SSE 11.5 mph - N/A   Overcast
5:23 PM 44.6 °F 38.1 °F 42.8 °F 93% 29.82 in 10.0 mi South 13.8 mph - N/A   Overcast
5:26 PM 44.6 °F 38.1 °F 41.0 °F 87% 29.82 in 10.0 mi South 13.8 mph 19.6 mph N/A   Light Drizzle
5:37 PM 44.6 °F 39.2 °F 42.8 °F 93% 29.81 in 10.0 mi South 10.4 mph - N/A   Overcast
5:40 PM 44.6 °F 38.8 °F 42.8 °F 93% 29.81 in 10.0 mi South 11.5 mph - N/A   Light Drizzle
5:45 PM 44.6 °F 39.7 °F 42.8 °F 93% 29.81 in 10.0 mi South 9.2 mph - N/A   Light Drizzle
5:53 PM 44.6 °F 39.2 °F 42.8 °F 93% 29.80 in 10.0 mi South 10.4 mph - N/A   Overcast
5:58 PM 44.4 °F 39.5 °F 42.3 °F 92% 29.82 in 10.0 mi SSE 9.2 mph - 0.02 in   Overcast
6:13 PM 44.6 °F 39.2 °F 42.8 °F 93% 29.79 in 10.0 mi SSE 10.4 mph - N/A   Overcast
6:23 PM 44.6 °F 39.7 °F 42.8 °F 93% 29.78 in 10.0 mi SSE 9.2 mph - N/A   Overcast
6:28 PM 44.6 °F 39.2 °F 42.8 °F 93% 29.78 in 10.0 mi SSE 10.4 mph - N/A   Overcast
6:53 PM 44.6 °F 38.4 °F 42.8 °F 93% 29.77 in 10.0 mi SSE 12.7 mph - N/A   Overcast
6:58 PM 44.4 °F 37.2 °F 42.4 °F 93% 29.78 in 10.0 mi SSE 16.1 mph 21.9 mph 0.01 in   Overcast
7:48 PM 44.6 °F 38.4 °F 42.8 °F 93% 29.74 in 10.0 mi SSE 12.7 mph - N/A   Overcast
7:58 PM 44.8 °F 38.0 °F 42.8 °F 93% 29.75 in 6.0 mi South 15.0 mph 23.0 mph N/A   Overcast
8:13 PM 44.6 °F 38.1 °F 42.8 °F 93% 29.73 in 7.0 mi South 13.8 mph 23.0 mph N/A   Overcast
8:17 PM 44.6 °F 38.1 °F 42.8 °F 93% 29.73 in 7.0 mi SSE 13.8 mph 23.0 mph N/A   Overcast
8:22 PM 44.6 °F 37.8 °F 42.8 °F 93% 29.73 in 7.0 mi SSE 15.0 mph - N/A   Light Drizzle
8:28 PM 44.6 °F 37.8 °F 42.8 °F 93% 29.73 in 8.0 mi SSE 15.0 mph 20.7 mph N/A   Overcast
8:33 PM 44.6 °F 38.4 °F 42.8 °F 93% 29.74 in 9.0 mi SSE 12.7 mph - N/A   Overcast
8:38 PM 44.6 °F 38.4 °F 42.8 °F 93% 29.74 in 10.0 mi SSE 12.7 mph - N/A   Overcast
8:43 PM 44.6 °F 39.2 °F 42.8 °F 93% 29.74 in 10.0 mi SSE 10.4 mph - N/A   Overcast
8:48 PM 44.6 °F 38.1 °F 42.8 °F 93% 29.73 in 10.0 mi SSE 13.8 mph - N/A   Overcast
8:53 PM 44.6 °F 39.2 °F 42.8 °F 93% 29.73 in 10.0 mi South 10.4 mph - N/A   Overcast
8:54 PM 44.6 °F 39.2 °F 42.8 °F 93% 29.74 in 10.0 mi South 10.4 mph - N/A   Overcast
8:58 PM 45.0 °F 39.3 °F 43.7 °F 95% 29.75 in 10.0 mi SSE 11.5 mph - 0.01 in   Overcast
9:03 PM 44.6 °F 38.8 °F 42.8 °F 93% 29.74 in 10.0 mi South 11.5 mph - N/A   Overcast
9:04 PM 44.6 °F 38.8 °F 42.8 °F 93% 29.74 in 10.0 mi South 11.5 mph - N/A   Overcast
9:09 PM 44.6 °F 39.2 °F 44.6 °F 100% 29.74 in 10.0 mi South 10.4 mph - N/A   Overcast
9:18 PM 44.6 °F 39.2 °F 44.6 °F 100% 29.74 in 10.0 mi South 10.4 mph - N/A   Overcast
9:28 PM 44.6 °F 38.4 °F 44.6 °F 100% 29.74 in 10.0 mi South 12.7 mph 21.9 mph N/A   Overcast
9:48 PM 44.6 °F 38.4 °F 42.8 °F 93% 29.75 in 10.0 mi SSW 12.7 mph - N/A   Overcast
9:53 PM 44.6 °F 39.2 °F 42.8 °F 93% 29.76 in 9.0 mi SSW 10.4 mph - N/A Rain Light Rain
9:58 PM 45.3 °F 36.7 °F 43.5 °F 93% 29.78 in 9.0 mi SW 24.2 mph 31.1 mph 0.01 in   Light Drizzle
10:03 PM 44.6 °F 36.9 °F 41.0 °F 87% 29.76 in 10.0 mi SW 18.4 mph 31.1 mph N/A   Light Drizzle
10:04 PM 44.6 °F 36.4 °F 41.0 °F 87% 29.76 in 10.0 mi SW 20.7 mph 31.1 mph N/A   Overcast
10:19 PM 42.8 °F 34.5 °F 39.2 °F 87% 29.77 in 10.0 mi SW 18.4 mph 28.8 mph N/A   Overcast
10:48 PM 42.8 °F 36.6 °F 35.6 °F 76% 29.79 in 10.0 mi South 11.5 mph 33.4 mph N/A   Mostly Cloudy
10:58 PM 42.4 °F 36.1 °F 34.5 °F 74% 29.81 in 10.0 mi SSW 11.5 mph 23.0 mph 0.00 in   Mostly Cloudy
11:58 PM 41.5 °F 35.4 °F 35.2 °F 78% 29.83 in 10.0 mi South 10.4 mph - N/A   Overcast